FW9068 Weather Reports


time (UTC)temp
C
wind
direction
speed
KPH
gust
KPH
rain 1hr
cm
rain 24hr
cm
rain mn
cm
humidity
%
barometer
mb
20260507081551 9 0 0.0 4.8 0.03 0.99 0.03 90 1006.4
20260507080051 9 138 1.6 11.3 0.00 0.97 0.00 89 1006.2
20260507074607 9 135 0.0 8.0 0.00 0.97 0.00 89 1006.0
20260507073050 10 138 0.0 4.8 0.00 0.97 0.00 90 1005.9
20260507071551 10 134 0.0 4.8 0.00 0.97 0.00 90 1006.3
20260507070106 10 79 0.0 4.8 0.00 0.97 0.00 91 1005.8
20260507064550 10 0 0.0 8.0 0.00 0.97 0.00 91 1005.8
20260507063058 10 136 0.0 3.2 0.00 0.97 0.00 91 1005.6
20260507061549 10 129 0.0 4.8 0.00 0.97 0.00 91 1005.7
20260507060048 10 0 0.0 4.8 0.00 0.97 0.00 92 1005.9
20260507054553 11 0 0.0 4.8 0.00 0.97 0.00 92 1005.8
20260507053052 11 0 0.0 4.8 0.00 0.97 0.00 92 1005.9
20260507051551 11 0 0.0 3.2 0.00 0.97 0.00 92 1005.4
20260507050048 11 128 0.0 6.4 0.00 0.97 0.00 93 1005.6
20260507044552 12 127 0.0 1.6 0.00 0.97 0.00 93 1005.8
20260507043049 12 0 0.0 1.6 0.00 0.97 0.00 93 1005.6
20260507041549 12 142 0.0 4.8 0.00 0.97 0.00 93 1005.4
20260507040049 12 0 0.0 4.8 0.00 0.97 0.00 93 1005.3
20260507034547 13 141 0.0 11.3 0.00 0.97 0.97 95 1004.9
20260507033102 14 123 1.6 8.0 0.00 0.97 0.97 96 1005.2
20260507031604 15 0 0.0 6.4 0.00 0.97 0.97 96 1004.8
20260507030053 14 115 0.0 3.2 0.00 0.97 0.97 96 1004.5
20260507024552 14 0 0.0 1.6 0.00 0.97 0.97 96 1004.4
20260507023052 14 0 0.0 1.6 0.00 0.97 0.97 96 1004.6
20260507021553 13 0 0.0 1.6 0.00 0.97 0.97 96 1004.6
20260507020051 13 0 0.0 1.6 0.00 0.97 0.97 96 1004.8
20260507014554 13 0 0.0 3.2 0.00 0.97 0.97 96 1005.0
20260507013101 12 117 0.0 1.6 0.00 0.97 0.97 96 1005.1
20260507011552 12 0 0.0 1.6 0.00 0.97 0.97 96 1005.2
20260507010055 12 0 0.0 3.2 0.03 0.97 0.97 96 1005.1
20260507004551 12 114 0.0 3.2 0.05 0.97 0.97 96 1005.3
20260507003047 13 114 1.6 3.2 0.10 0.97 0.97 96 1005.3
20260507001552 13 123 0.0 4.8 0.13 0.97 0.97 96 1005.2
20260507000055 13 0 0.0 6.4 0.10 0.94 0.94 96 1005.0
20260506234554 13 0 1.6 4.8 0.10 0.91 0.91 96 1005.0
20260506233104 13 114 0.0 4.8 0.08 0.86 0.86 96 1005.1
20260506231553 13 97 0.0 4.8 0.08 0.84 0.84 95 1005.3
20260506224549 13 117 0.0 6.4 0.15 0.81 0.81 95 1005.4
20260506223050 13 0 0.0 6.4 0.15 0.79 0.79 95 1005.6
20260506221555 13 0 0.0 6.4 0.15 0.76 0.76 95 1005.6
20260506220048 13 109 1.6 6.4 0.13 0.71 0.71 95 1005.8
20260506214546 13 97 1.6 9.7 0.13 0.66 0.66 95 1005.9
20260506213048 13 117 1.6 6.4 0.18 0.64 0.64 95 1006.1
20260506211554 14 0 3.2 9.7 0.30 0.61 0.61 94 1006.2
20260506210049 14 0 1.6 8.0 0.30 0.58 0.58 94 1006.3
20260506204548 14 103 1.6 8.0 0.30 0.53 0.53 94 1006.3
20260506203048 14 115 1.6 6.4 0.25 0.46 0.46 93 1006.3
20260506201546 15 103 0.0 6.4 0.23 0.30 0.30 93 1006.2
20260506200052 15 0 0.0 3.2 0.23 0.28 0.28 93 1006.2
20260506194549 15 120 0.0 1.6 0.20 0.23 0.23 93 1006.2
20260506193047 15 0 0.0 1.6 0.20 0.20 0.20 92 1006.6
20260506191546 16 0 0.0 1.6 0.08 0.08 0.08 90 1006.8
20260506190047 16 0 0.0 4.8 0.05 0.05 0.05 87 1006.6
20260506184546 16 121 1.6 8.0 0.03 0.03 0.03 85 1006.3
20260506183053 16 101 1.6 9.7 0.00 0.00 0.00 80 1006.5
20260506181548 17 0 4.8 14.5 0.00 0.00 0.00 76 1006.5
20260506180049 17 54 1.6 11.3 0.00 0.00 0.00 76 1006.5
20260506174548 17 139 3.2 14.5 0.00 0.00 0.00 75 1006.8
20260506173100 17 115 3.2 9.7 0.00 0.00 0.00 73 1006.9
20260506171553 18 70 4.8 9.7 0.00 0.00 0.00 72 1007.1
20260506170100 17 98 3.2 8.0 0.00 0.00 0.00 74 1007.2
20260506164606 18 274 3.2 8.0 0.00 0.00 0.00 74 1007.3
20260506163058 18 100 1.6 9.7 0.00 0.00 0.00 74 1007.5
20260506161551 17 106 4.8 8.0 0.00 0.00 0.00 75 1007.9
20260506160106 18 0 3.2 9.7 0.00 0.00 0.00 75 1008.2
20260506154553 18 105 3.2 8.0 0.00 0.00 0.00 75 1008.5
20260506153055 17 51 3.2 8.0 0.00 0.00 0.00 76 1008.6
20260506151548 18 122 1.6 8.0 0.00 0.00 0.00 75 1008.6
20260506150048 18 103 1.6 8.0 0.00 0.00 0.00 74 1008.7
20260506144553 18 94 1.6 6.4 0.00 0.00 0.00 75 1008.5
20260506143051 17 101 1.6 9.7 0.00 0.00 0.00 76 1008.3
20260506141606 17 109 1.6 4.8 0.00 0.00 0.00 78 1008.5
20260506140055 17 86 1.6 6.4 0.00 0.00 0.00 77 1008.5
20260506134553 17 109 0.0 4.8 0.00 0.00 0.00 78 1008.7
20260506133059 17 115 1.6 4.8 0.00 0.00 0.00 78 1008.8
20260506131555 17 109 1.6 6.4 0.00 0.00 0.00 76 1008.7
20260506130048 17 111 0.0 4.8 0.00 0.00 0.00 76 1008.8
20260506124553 17 91 0.0 4.8 0.00 0.00 0.00 77 1008.6
20260506123048 17 91 1.6 6.4 0.00 0.00 0.00 79 1008.9
20260506121559 16 98 1.6 4.8 0.00 0.00 0.00 79 1008.8
20260506120118 16 0 0.0 3.2 0.00 0.00 0.00 79 1009.0
20260506114551 16 103 0.0 4.8 0.00 0.00 0.00 79 1009.2
20260506113051 16 0 1.6 6.4 0.00 0.00 0.00 79 1009.2
20260506111550 16 0 0.0 4.8 0.00 0.00 0.00 79 1009.1
20260506110056 16 115 0.0 3.2 0.00 0.00 0.00 79 1009.3
20260506104549 16 0 0.0 1.6 0.00 0.00 0.00 80 1009.2
20260506103054 16 0 0.0 3.2 0.00 0.00 0.00 80 1009.2
20260506101558 16 0 0.0 4.8 0.00 0.00 0.00 79 1009.3
20260506100054 16 0 0.0 3.2 0.00 0.00 0.00 80 1009.2
20260506094551 16 117 0.0 3.2 0.00 0.00 0.00 80 1009.2
20260506093051 16 0 0.0 1.6 0.00 0.00 0.00 80 1009.2
20260506091552 16 0 1.6 4.8 0.00 0.00 0.00 79 1009.1
20260506090052 16 106 0.0 1.6 0.00 0.00 0.00 78 1009.0
20260506084552 16 0 0.0 3.2 0.00 0.00 0.00 78 1009.0
20260506083051 16 0 0.0 3.2 0.00 0.00 0.00 77 1008.9